Weather History for Masbate, Philippines

Change the Weather History Date:

Wednesday, February 13, 2013

  Actual Average Record
Temperature  
Mean Temperature 82 °F -  
Max Temperature 89 °F 84 °F 89 °F (1998)
Min Temperature 74 °F 74 °F 73 °F (2009)
Cooling Degree Days 16    
Growing Degree Days 32 (Base 50)    
Moisture  
Dew Point 75 °F    
Average Humidity 81    
Maximum Humidity 92    
Minimum Humidity 66    
Precipitation  
Precipitation 0.03 in - - ()
Sea Level Pressure  
Sea Level Pressure 29.86 in    
Wind  
Wind Speed 7 mph ()    
Max Wind Speed 14 mph    
Max Gust Speed -    
Visibility 7.8 miles    
Events Rain    
Averages and records for this station are not official NWS values.
T = Trace of Precipitation, MM = Missing Value Source: Averaged Metar Reports

Daily Weather History Graph

Daily Weather History Graph

Search for Another Location

Airport:

Trip Planner

Search our weather history database for the weather conditions in past years. The results will help you decide how hot, cold, wet, or windy it might be!

Date:

Astronomy

Feb. 13, 2013 Rise Set
Actual Time 6:04 AM PHT 5:51 PM PHT
Civil Twilight 5:43 AM PHT 6:13 PM PHT
Nautical Twilight 5:18 AM PHT 6:38 PM PHT
Astronomical Twilight 4:53 AM PHT 7:03 PM PHT
Moon 7:58 AM PHT (2/13) 8:28 PM PHT (2/13)
Length of Visible Light 12h 30m
Length of Day
11h 47m
Waxing Crescent, 10% of the Moon is Illuminated
Feb 13
Waxing Crescent
Feb 18
First Quarter
Feb 26
Full
Mar 5
Last Quarter
Mar 12
New

Hourly Weather History & Observations

Time (PHT) Temp. Heat Index Dew Point Humidity Pressure Visibility Wind Dir Wind Speed Gust Speed Precip Events Conditions
12:00 AM 78.8 °F - 75.2 °F 89% 29.89 in 6.2 mi North 11.5 mph - N/A   Mostly Cloudy
1:00 AM 78.8 °F - 73.4 °F 83% 29.89 in 6.2 mi North 6.9 mph - N/A   Mostly Cloudy
2:00 AM 77 °F - 75 °F 92% 29.87 in 11 mi Calm Calm - -   Partly Cloudy
2:00 AM 78.8 °F - 73.4 °F 83% 29.86 in 6.2 mi NNW 4.6 mph - N/A   Mostly Cloudy
3:00 AM 78.8 °F - 73.4 °F 83% 29.83 in 6.2 mi NNW 6.9 mph - N/A   Mostly Cloudy
4:00 AM 78.8 °F - 73.4 °F 83% 29.83 in 6.2 mi NNW 6.9 mph - N/A   Mostly Cloudy
5:00 AM 77 °F - 75 °F 92% 29.87 in 11 mi Calm Calm - - Rain Light Rain
5:00 AM 77.0 °F - 73.4 °F 89% 29.83 in 6.2 mi North 6.9 mph - N/A   Mostly Cloudy
6:00 AM 77.0 °F - 73.4 °F 89% 29.83 in 6.2 mi NNE 4.6 mph - N/A   Mostly Cloudy
8:00 AM 79 °F - 76 °F 90% 29.91 in 12 mi Calm Calm - -   Partly Cloudy
8:00 AM 82.4 °F 89.5 °F 75.2 °F 79% 29.89 in 6.2 mi NNE 11.5 mph - N/A   Mostly Cloudy
9:00 AM 84.2 °F 92.3 °F 75.2 °F 74% 29.89 in 6.2 mi North 13.8 mph - N/A   Mostly Cloudy
10:00 AM 82.4 °F 89.5 °F 75.2 °F 79% 29.89 in 6.2 mi NNE 13.8 mph - N/A   Scattered Clouds
11:00 AM 84 °F - 79 °F 81% 29.93 in 16 mi ENE 6.7 mph - -   Partly Cloudy
11:00 AM 84.2 °F 90.9 °F 73.4 °F 70% 29.89 in 6.2 mi NNE 11.5 mph - N/A   Mostly Cloudy
12:00 PM 86.0 °F 93.4 °F 73.4 °F 66% 29.86 in 6.2 mi North 12.7 mph - N/A   Mostly Cloudy
1:00 PM 84.2 °F 92.3 °F 75.2 °F 74% 29.83 in 6.2 mi NNE 13.8 mph - N/A   Mostly Cloudy
2:00 PM 85 °F - 79 °F 79% 29.85 in 16 mi ENE 6.7 mph - -   Overcast
2:00 PM 84.2 °F 92.3 °F 75.2 °F 74% 29.83 in 6.2 mi NNE 13.8 mph - N/A   Mostly Cloudy
3:00 PM 84.2 °F 94.1 °F 77.0 °F 79% 29.83 in 6.2 mi North 6.9 mph - N/A   Scattered Clouds
4:00 PM 84.2 °F 94.1 °F 77.0 °F 79% 29.80 in 6.2 mi NNE 13.8 mph - N/A   Partly Cloudy
5:00 PM 82 °F - 77 °F 79% 29.83 in 12 mi ESE 4.5 mph - -   Partly Cloudy
5:00 PM 84.2 °F 90.9 °F 73.4 °F 70% 29.80 in 6.2 mi NNE 8.1 mph - N/A   Partly Cloudy
6:00 PM 82.4 °F 87.2 °F 71.6 °F 70% 29.83 in 6.2 mi North 6.9 mph - N/A   Partly Cloudy
7:00 PM 80.6 °F 85.4 °F 73.4 °F 79% 29.83 in 6.2 mi NNE 8.1 mph - N/A   Partly Cloudy
8:00 PM 79 °F - 75 °F 85% 29.88 in 11 mi ENE 4.5 mph - -   Partly Cloudy
8:00 PM 80.6 °F 86.2 °F 75.2 °F 84% 29.86 in 6.2 mi North 9.2 mph - N/A   Mostly Cloudy
9:00 PM 80.6 °F 86.2 °F 75.2 °F 84% 29.86 in 6.2 mi North 9.2 mph - N/A   Mostly Cloudy
10:00 PM 80.6 °F 86.2 °F 75.2 °F 84% 29.89 in 6.2 mi North 9.2 mph - N/A   Mostly Cloudy
11:00 PM 77 °F - 74 °F 87% 29.91 in 11 mi Calm Calm - -   Scattered Clouds
11:00 PM 78.8 °F - 75.2 °F 89% 29.86 in 6.2 mi North 9.2 mph - N/A   Mostly Cloudy